View from above orbital plane
|
View from above satellite
|
Ground track
|
The orbit data is extracted from the following two-line orbital elements,
1 14032U 83037A 21103.19618230 .00000785 00000-0 36027-4 0 9990
2 14032 82.5147 146.9744 0018514 103.1103 257.2199 15.18737854 73141
Epoch (UTC): | 13 April 2021 04:42:30 |
Eccentricity: | 0.0018514 |
inclination: | 82.5147° |
perigee height: | 497 km |
apogee height: | 522 km |
right ascension of ascending node: | 146.9744° |
argument of perigee: | 103.1103° |
revolutions per day: | 15.18737854 |
mean anomaly at epoch: | 257.2199° |
orbit number at epoch: | 7314 |
The dashed part of the orbit path shows where the satellite is in the earth's shadow,
|
|